Dewpoint
50 51 54 57 58 58 55 53 51 51 51 49 47 47 52 49 50 45 37 37 33 43 48 39 35 33 36 35 32 33 28 25 23 23 22 21 19 18 23 26 28 31 32 40 55
46 47 53 55 56 58 56 54 52 51 51 49 47 48 51 50 44 37 35 40 42 46 39 33 29 31 30 29 33 31 26 24 22 21 21 21 20 20 20 23 28 32 35 39 57
45 45 48 51 52 56 57 54 53 51 51 48 47 50 49 47 36 28 41 45 47 46 39 34 35 34 32 26 28 28 26 22 21 20 21 22 22 22 23 22 27 28 34 45 55
45 45 44 47 49 53 58 56 53 51 50 47 47 50 49 41 27 29 46 46 42 41 39 37 36 34 32 27 25 23 25 24 23 22 20 23 24 26 28 27 30 28 32 43 53
46 44 45 45 47 51 55 56 53 51 49 47 49 50 44 37 32 34 43 41 37 37 37 35 35 34 32 30 28 25 23 23 24 23 23 23 24 29 26 30 35 33 38 45 47
44 45 44 45 45 49 52 56 52 51 48 48 50 49 42 35 34 33 37 36 36 36 36 36 36 36 35 33 32 30 28 25 24 24 23 22 21 24 29 33 35 40 42 43 46
45 43 44 44 45 48 52 54 52 50 48 49 50 45 40 35 35 35 36 37 36 38 38 38 39 37 37 33 33 33 28 26 25 24 22 22 20 22 27 31 35 38 41 44 43
45 44 44 44 45 47 55 52 52 49 48 49 48 43 35 40 38 37 37 37 37 42 41 41 42 39 38 35 31 29 27 23 23 23 27 23 22 23 26 30 33 37 41 43 41
46 45 44 44 45 49 53 51 48 49 50 49 43 40 35 41 37 35 35 32 37 43 42 40 42 37 37 34 28 24 23 25 28 29 26 25 26 27 27 36 36 38 41 43 42
46 46 45 43 45 49 51 51 51 49 48 45 43 38 37 33 34 34 34 37 37 40 39 41 39 36 32 30 20 22 26 26 33 30 26 26 29 32 37 35 36 40 42 41 42
47 46 44 43 44 48 49 47 41 39 40 35 36 34 33 36 38 35 35 36 37 36 34 36 33 29 29 29 27 26 26 27 34 36 27 28 30 29 30 33 36 39 44 41 44
47 46 44 44 51 51 47 42 39 40 37 36 34 36 38 38 31 32 37 34 31 30 34 34 29 30 33 34 30 29 27 27 33 35 30 29 28 29 31 32 34 37 40 45 48
46 45 43 45 49 47 46 41 44 40 35 33 35 36 35 38 30 27 35 31 28 26 30 31 29 32 35 32 30 29 28 27 32 37 35 33 32 34 36 37 36 39 39 48 49
46 47 43 48 45 46 42 45 46 40 32 31 34 35 37 35 30 31 36 33 27 27 28 27 29 32 32 31 31 30 27 30 33 33 29 32 26 33 36 37 38 38 42 50 52
46 47 44 44 43 42 44 45 45 37 21 32 35 39 37 32 28 30 37 35 28 27 30 29 31 35 33 35 37 31 29 33 30 28 33 30 26 32 36 38 39 43 46 51 51
46 46 44 42 43 45 47 45 39 29 22 32 35 33 32 32 28 30 32 36 34 32 33 32 34 37 35 36 37 36 32 30 31 31 28 31 30 30 32 33 42 42 43 47 51
45 45 43 40 39 47 45 39 28 24 28 30 29 31 30 30 31 27 27 29 27 29 29 29 31 35 39 34 37 37 27 27 26 25 25 33 31 30 33 35 41 43 42 42 44
44 43 43 39 43 46 40 32 23 26 29 33 29 29 27 27 29 27 25 25 28 29 27 25 27 34 37 36 33 35 33 28 18 22 27 34 27 30 34 37 40 39 41 45 44
43 42 40 40 42 44 37 26 28 30 30 29 29 26 24 25 26 24 23 27 29 32 30 26 30 35 39 37 37 31 29 27 24 23 21 29 32 35 37 35 38 36 38 37 40
41 39 37 42 42 41 33 28 31 32 32 29 26 27 22 22 23 25 26 29 31 33 34 35 29 35 37 40 38 36 31 28 28 20 18 26 28 29 35 35 37 38 36 35 37
38 33 40 44 42 37 27 31 33 33 32 29 27 24 20 20 27 24 26 32 35 35 36 36 33 32 36 32 31 30 26 24 23 22 15 18 27 25 29 34 31 33 34 35 35
38 31 43 42 32 34 31 34 35 34 32 32 31 27 23 25 25 26 27 33 37 35 35 34 32 30 30 31 32 32 26 24 21 18 21 20 23 25 29 30 32 33 33 33 32
36 35 44 41 29 30 33 34 35 32 33 33 32 30 29 28 26 28 31 35 34 33 31 29 27 28 26 28 30 29 27 25 25 28 24 19 22 26 29 30 31 31 31 31 31
36 30 35 38 37 30 32 32 31 33 33 34 31 29 29 29 30 30 30 34 35 34 33 31 28 28 24 27 30 28 26 24 28 23 19 20 24 27 28 29 31 30 30 31 31
37 34 36 31 32 33 34 33 28 30 34 34 30 28 28 27 27 29 31 31 32 32 31 30 29 28 26 27 28 28 26 24 24 23 23 22 24 25 27 28 29 30 31 30 32
34 34 36 33 34 34 33 30 27 31 33 32 29 29 28 27 29 27 30 29 29 30 29 30 28 28 24 25 26 26 27 27 26 23 23 23 24 27 29 28 29 30 31 31 32
40 38 34 35 34 31 29 28 28 31 33 32 32 28 29 33 33 33 33 32 31 29 28 28 29 29 24 25 23 21 24 26 27 28 25 23 26 27 29 29 30 32 32 33 34
Wind_Speed
23 25 25 26 23 17 15 11 9 7 6 7 8 6 6 4 7 9 9 2 3 2 6 4 7 6 8 10 14 14 21 32 32 32 31 25 30 29 28 31 33 29 27 17 8
23 23 24 25 22 19 17 12 10 8 7 5 6 6 2 4 11 12 4 5 6 4 6 4 6 6 12 11 11 19 26 34 28 27 27 28 31 30 31 30 33 31 30 22 7
22 22 24 26 25 24 19 14 9 7 7 5 4 4 4 7 11 3 10 9 9 6 3 4 6 5 12 15 19 22 32 28 27 27 29 31 29 29 32 34 29 31 27 12 13
22 22 23 24 23 23 15 14 11 6 6 5 3 3 5 6 4 7 10 9 6 7 7 7 6 5 7 12 15 27 26 26 29 30 29 27 29 29 31 29 27 31 29 8 12
22 22 22 24 24 29 28 17 11 10 7 6 4 8 6 7 7 11 10 8 3 6 9 10 11 12 16 11 16 25 25 26 27 25 27 28 29 31 32 29 27 23 21 4 10
20 22 22 24 24 27 34 17 11 7 6 4 6 11 8 9 6 8 7 4 5 7 11 11 8 10 12 19 17 16 18 21 26 26 24 28 31 32 28 31 29 17 23 16 24
21 22 22 23 25 25 32 13 10 8 2 5 8 9 7 9 2 7 6 5 3 6 11 10 9 11 3 12 20 19 21 23 27 24 29 25 32 35 31 30 22 20 23 22 24
22 20 21 23 23 28 17 15 11 8 6 7 9 8 6 5 3 8 8 7 6 4 5 5 8 12 7 13 14 16 12 18 22 28 28 26 33 33 31 29 29 18 20 20 23
21 19 20 22 25 27 12 16 8 9 8 8 8 6 5 5 5 7 6 6 6 4 4 2 7 6 8 13 13 16 17 17 22 25 23 28 23 29 30 17 14 17 19 18 19
17 19 19 20 20 16 10 7 7 11 7 7 3 3 6 4 6 3 4 5 6 3 4 5 6 6 11 12 12 9 11 19 17 10 27 24 24 13 14 11 7 8 14 18 21
17 17 17 19 21 13 13 11 5 5 7 8 8 4 5 4 3 6 6 6 9 7 6 3 7 14 15 18 21 18 16 18 16 16 23 24 25 25 17 13 13 5 11 18 15
20 15 15 19 17 15 6 4 3 1 4 16 8 11 1 1 3 7 5 6 10 11 11 4 15 19 12 18 19 15 15 18 5 3 12 17 19 17 14 19 11 6 8 12 13
16 11 9 7 8 3 3 5 4 6 2 6 10 7 6 6 3 9 7 5 10 11 12 16 16 4 9 8 14 15 17 17 5 5 9 5 9 11 7 13 13 9 7 12 17
15 11 6 1 2 3 2 6 3 3 2 8 7 5 6 4 4 5 4 5 4 8 11 12 7 7 8 9 9 16 17 6 4 6 3 8 3 8 15 10 10 7 7 11 19
6 12 7 5 3 3 3 6 6 3 4 8 5 4 6 6 5 8 4 5 6 7 5 5 5 5 8 3 6 7 3 5 13 13 5 10 5 7 10 5 7 12 16 14 19
13 13 9 6 4 3 7 4 2 4 4 5 5 8 8 8 5 6 4 4 5 6 7 15 2 3 4 2 6 16 10 11 12 16 1 6 2 5 10 9 12 23 20 16 18
5 10 7 3 1 8 9 4 4 5 5 6 6 7 5 5 7 5 6 9 5 5 5 4 4 3 2 4 4 11 11 4 4 2 4 4 1 11 11 3 9 23 19 19 19
8 7 3 4 6 10 6 1 5 7 3 3 6 8 2 7 4 6 5 8 8 8 7 2 3 4 6 1 2 3 2 5 2 2 1 3 8 7 12 11 18 16 14 16 19
7 3 2 4 6 5 3 5 7 5 3 6 10 5 3 4 1 6 7 2 1 1 4 3 2 2 4 3 3 1 4 8 3 7 7 5 3 17 21 19 20 22 17 16 14
3 4 3 3 10 7 3 6 4 4 3 8 2 2 5 7 5 6 7 1 1 2 4 6 3 4 4 3 9 5 9 5 4 2 6 6 11 9 14 17 17 19 14 18 17
1 2 7 10 9 3 2 3 3 3 3 3 3 4 6 9 7 1 2 2 3 2 3 4 3 3 3 3 7 1 3 4 3 4 4 6 6 7 13 15 21 20 16 15 16
2 4 5 11 5 2 3 4 3 6 3 3 3 3 5 6 2 2 4 1 3 5 2 2 4 6 2 2 1 4 8 6 1 5 11 15 8 7 13 16 18 17 17 16 15
2 4 7 2 3 4 2 3 3 4 2 4 1 1 2 2 2 5 4 0 3 4 8 7 4 1 2 2 1 6 14 12 5 6 4 7 10 10 13 16 17 17 14 14 14
1 5 3 3 4 5 3 2 3 2 3 4 3 3 4 4 3 5 7 2 2 3 6 4 7 9 9 5 4 6 15 18 7 10 12 17 21 14 13 13 14 14 13 14 13
1 4 3 4 3 5 4 1 2 3 2 3 2 1 2 3 6 4 2 4 1 1 1 4 5 5 9 8 6 8 11 15 17 8 12 18 17 15 14 13 11 11 10 11 11
5 5 4 6 7 7 2 2 1 0 3 1 1 4 3 8 7 4 2 1 4 3 5 3 4 1 8 8 7 8 8 10 13 15 15 16 14 11 9 10 11 9 8 9 9
2 1 4 3 4 4 3 2 4 2 2 5 4 2 6 7 8 7 5 6 5 4 4 5 2 4 3 5 0 4 6 6 6 7 7 10 9 9 8 7 7 7 7 7 7
Wind_Direction
331 325 322 323 337 236 242 247 251 250 238 281 300 272 287 249 260 246 274 334 29 170 241 271 259 272 258 240 239 241 245 249 251 253 261 262 263 259 243 248 250 245 251 255 32
333 329 324 327 323 307 238 233 241 260 234 271 295 279 231 219 270 273 201 146 195 215 243 262 284 298 257 237 219 222 233 247 257 264 264 260 257 255 260 235 241 257 255 264 103
331 328 328 328 329 319 234 228 223 241 230 252 281 282 209 262 280 137 129 159 194 177 261 276 285 294 272 251 229 228 243 260 259 261 262 266 265 254 256 253 239 237 235 268 189
328 327 325 321 320 313 270 220 208 219 216 246 247 196 220 259 282 134 149 161 176 244 247 259 269 251 264 243 244 248 253 258 264 266 271 257 262 260 263 264 269 244 242 234 213
322 326 327 325 319 317 326 210 193 205 194 243 212 167 223 234 243 145 167 136 208 225 242 263 265 267 254 258 259 261 253 256 261 262 260 263 259 266 257 269 260 262 287 258 282
316 320 323 324 319 318 322 198 184 193 192 191 174 178 233 249 94 157 182 177 251 252 260 263 241 249 283 271 252 264 269 262 254 254 250 248 252 253 252 263 255 279 269 257 249
308 316 319 322 319 315 315 165 184 165 157 187 170 204 235 233 175 167 185 233 254 261 278 295 273 210 248 258 258 261 274 265 253 253 245 248 248 242 247 247 253 242 267 260 237
301 310 316 322 323 318 287 154 150 150 177 181 183 210 254 141 237 217 230 248 228 249 267 317 272 195 226 280 275 256 267 266 260 243 242 233 247 239 235 240 243 246 261 250 214
292 305 313 321 324 329 147 131 150 141 174 169 187 229 254 132 203 224 217 216 196 237 231 136 145 201 212 231 271 230 257 255 279 257 221 213 238 246 212 204 241 251 250 237 224
289 299 307 315 319 328 118 129 125 126 153 153 97 230 216 199 166 184 188 215 239 196 212 177 229 267 235 225 247 308 265 289 273 232 214 210 231 185 191 199 260 296 254 228 226
297 292 298 310 302 288 129 106 170 100 211 203 181 219 121 120 181 199 166 221 225 222 220 217 249 236 246 244 274 282 283 277 283 270 191 214 216 236 230 229 245 334 293 230 225
299 284 292 325 323 183 179 200 154 86 208 231 246 220 259 327 208 175 183 220 203 237 237 198 249 254 264 259 257 273 270 276 274 241 193 224 223 233 244 250 241 257 314 245 242
306 273 289 340 64 54 255 211 131 222 160 182 211 230 222 201 229 174 199 227 248 254 239 241 280 235 241 244 234 245 250 262 328 216 241 205 221 227 249 274 235 237 280 243 193
304 265 262 165 236 146 215 187 236 236 253 156 180 181 171 203 224 169 200 259 228 266 250 266 273 289 303 249 230 263 246 247 212 279 140 211 316 332 313 294 220 208 254 170 127
257 281 219 234 329 201 65 166 228 210 228 135 137 135 152 197 134 188 177 208 268 255 242 270 283 337 297 240 315 265 295 191 251 275 270 48 207 329 11 141 166 173 127 119 126
225 219 185 212 214 19 112 128 210 215 180 131 131 171 165 189 172 136 211 206 289 264 250 263 301 232 309 299 256 287 256 228 255 262 360 343 337 14 13 328 125 113 115 125 131
104 179 192 157 23 135 130 89 222 270 162 134 151 174 191 164 174 188 205 212 238 244 235 196 234 345 307 326 275 252 210 194 205 285 14 305 10 43 19 249 114 107 113 111 112
143 153 192 244 118 142 110 154 247 80 64 102 138 141 181 145 142 185 215 230 224 258 287 277 199 7 16 272 278 235 277 321 332 67 323 66 32 17 41 81 86 72 94 105 95
131 174 210 215 166 124 158 237 23 66 100 126 136 147 145 164 337 192 222 240 357 262 305 333 133 310 254 314 315 21 303 329 316 92 51 37 119 36 36 55 65 68 58 81 101
134 176 104 121 150 148 249 313 53 352 9 175 79 145 168 155 178 229 203 108 77 37 342 6 275 350 299 218 253 236 328 298 255 39 64 50 51 53 52 66 82 68 75 73 73
109 103 19 133 134 99 233 27 37 304 299 183 329 132 116 150 248 154 54 86 25 36 34 315 289 61 240 29 33 99 349 261 292 335 90 101 64 32 85 92 94 107 101 88 82
29 82 6 139 104 208 300 47 341 335 198 281 301 44 142 145 101 104 85 61 217 307 310 199 355 47 356 327 289 287 19 12 347 57 70 98 79 88 95 102 105 102 100 99 94
60 53 72 7 127 165 31 54 292 349 200 351 328 352 220 125 108 94 95 310 308 325 3 357 14 220 28 221 76 35 14 19 38 42 10 108 125 115 111 104 103 103 100 92 86
146 102 45 319 286 140 86 43 304 46 319 335 351 132 152 84 21 132 127 95 8 12 338 290 46 44 64 56 328 15 22 35 40 63 89 113 128 131 120 110 104 101 96 86 80
2 85 172 175 145 107 75 317 226 23 272 332 142 232 93 102 101 92 68 126 153 349 40 13 60 41 60 48 54 55 43 46 50 66 104 132 128 133 131 123 110 103 93 87 81
134 138 80 125 110 99 199 190 95 292 335 7 359 102 340 59 6 144 136 299 16 34 29 30 130 157 66 47 57 58 55 68 72 80 101 111 108 115 107 125 126 116 110 90 76
190 201 128 95 124 166 182 82 131 327 93 24 349 158 73 38 54 61 53 51 48 4 30 6 55 9 47 10 17 111 21 48 82 62 126 147 134 156 142 129 119 117 117 106 86